Tracking 19575 objects as of 19-Feb-2019
HD Live streaming from Space Station
objects crossing your sky now

DELTA 2 R/B(1)

Track DELTA 2 R/B(1) now!
10-day predictions


NORAD ID: 27665
Int'l Code: 2003-005C
Perigee: 796.5 km
Apogee: 811.4 km
Inclination: 39.6 °
Period: 100.8 minutes
Semi major axis: 7174 km
RCS: 9.691 m2 (large)
Launch date: January 29, 2003
Source: United States (US)
Launch site: AIR FORCE EASTERN TEST RANGE (AFETR)

Note: This is a ROCKET BODY
aabbcc
Your satellite tracking list
Your tracking list is empty




NASA's NSSDC Master Catalog

Two Line Element Set (TLE):
1 27665U 03005C   19049.90835442 -.00000052 +00000-0 +13268-4 0  9994
2 27665 039.5747 235.3662 0010389 283.4725 188.9804 14.28494308838338
Source of the keplerian elements: AFSPC